Location: Biltmore Gardens
(41.6070°N, 83.4666°W)
Time: 15:18:48
(UTC+00:00)

H-2A R/B - Pass Details

Date: 14 July 2020
Orbit: 577 x 656 km, 98.5° (Epoch: 12 August)

Event Time Altitude Azimuth Distance (km) Brightness Sun altitude
Rises 08:30:23 0° 149° (SSE) 2,931 5.3 -15.5°
Reaches altitude 10° 08:32:40 10° 143° (SE) 2,015 4.6 -15.2°
Maximum altitude 08:36:50 44° 71° (ENE) 873 3.3 -14.7°
Drops below altitude 10° 08:40:55 10° 0° (N) 1,983 5.3 -14.2°
Sets 08:43:09 0° 354° (N) 2,879 6.1 -13.9°
